Cordoba, Spain

2:33 AM CEST on August 26, 2016 (GMT +0200)
Cordoba

Weather History for LEBA - September, 2013

Change the Weather History Date:

Thursday, September 5, 2013

  Actual Average Record
Temperature  
Mean Temperature 76 °F -  
Max Temperature 90 °F - - ()
Min Temperature 63 °F - - ()
Cooling Degree Days 12    
Growing Degree Days 26 (Base 50)    
Moisture  
Dew Point 58 °F    
Average Humidity 51    
Maximum Humidity 83    
Minimum Humidity 21    
Precipitation  
Precipitation 0.00 in 0.04 in - ()
Sea Level Pressure  
Sea Level Pressure 29.93 in    
Wind  
Wind Speed 4 mph ()    
Max Wind Speed 14 mph    
Max Gust Speed -    
Visibility 7.9 miles    
Events      
T = Trace of Precipitation, MM = Missing Value Source: Averaged Metar Reports

Daily Weather History Graph

Daily Weather History Graph

Search for Another Location

Airport or City:

Trip Planner

Search our weather history database for the weather conditions in past years. The results will help you decide how hot, cold, wet, or windy it might be!

Date:

Astronomy

Sep. 05, 2013 Rise Set
Actual Time 7:52 AM CEST 8:42 PM CEST
Civil Twilight 7:26 AM CEST 9:09 PM CEST
Nautical Twilight 6:54 AM CEST 9:40 PM CEST
Astronomical Twilight 6:21 AM CEST 10:13 PM CEST
Moon 7:49 AM CEST (9/5) 8:28 PM CEST (9/5)
Length of Visible Light 13h 43m
Length of Day
12h 49m
Waning Crescent, 0% of the Moon is Illuminated
Sep 5
Waning Crescent
Sep 5
New
Sep 12
First Quarter
Sep 19
Full
Sep 27
Last Quarter

Hourly Weather History & Observations

Time (CEST) Temp. Heat Index Dew Point Humidity Pressure Visibility Wind Dir Wind Speed Gust Speed Precip Events Conditions
2:00 AM 71 °F - 58 °F 56% 29.99 in - WSW 5.8 mph - -  
7:00 AM 64.4 °F - 59.0 °F 83% 29.95 in - Calm Calm - N/A   Clear
8:00 AM 64 °F - 59 °F 79% 29.96 in 16 mi Calm Calm - -  
8:00 AM 64.4 °F - 59.0 °F 83% 29.95 in - Calm Calm - N/A   Clear
9:00 AM 69.8 °F - 60.8 °F 73% 29.95 in - Calm Calm - N/A   Clear
10:00 AM 73.4 °F - 60.8 °F 65% 29.98 in - Calm Calm - N/A   Clear
10:22 AM 77.0 °F - 60.8 °F 57% 29.98 in - Variable 1.2 mph - N/A   Clear
11:00 AM 77.0 °F - 62.6 °F 61% 29.98 in 6.2 mi Calm Calm - N/A   Partly Cloudy
11:39 AM 80.6 °F 81.5 °F 60.8 °F 51% 29.98 in 6.2 mi East 1.2 mph - N/A   Partly Cloudy
12:00 PM 80.6 °F 81.5 °F 60.8 °F 51% 29.98 in 6.2 mi SE 4.6 mph - N/A   Partly Cloudy
1:00 PM 82.4 °F 82.5 °F 59.0 °F 45% 29.95 in 6.2 mi SSW 5.8 mph - N/A   Partly Cloudy
2:00 PM 87 °F - 53 °F 21% 29.93 in - SW 6.9 mph - -  
2:00 PM 84.2 °F 83.0 °F 55.4 °F 37% 29.92 in 6.2 mi SW 6.9 mph - N/A   Partly Cloudy
3:00 PM 84.2 °F 83.5 °F 57.2 °F 40% 29.92 in 6.2 mi WNW 3.5 mph - N/A   Scattered Clouds
4:00 PM 87.8 °F 86.1 °F 55.4 °F 33% 29.89 in 6.2 mi SW 5.8 mph - N/A   Scattered Clouds
5:00 PM 87.8 °F 85.7 °F 53.6 °F 31% 29.89 in 6.2 mi SW 10.4 mph - N/A   Scattered Clouds
6:00 PM 87.8 °F 85.7 °F 53.6 °F 31% 29.86 in 6.2 mi WSW 10.4 mph - N/A   Partly Cloudy
7:00 PM 86.0 °F 84.2 °F 53.6 °F 33% 29.86 in 6.2 mi WSW 6.9 mph - N/A   Partly Cloudy
8:00 PM 85 °F - 55 °F 26% 29.86 in 19 mi WSW 11.5 mph - -   Scattered Clouds
8:00 PM 84.2 °F 83.5 °F 57.2 °F 40% 29.86 in 6.2 mi WSW 10.4 mph - N/A   Partly Cloudy
9:00 PM 80.6 °F 81.5 °F 60.8 °F 51% 29.89 in - WSW 13.8 mph - N/A   Clear
10:00 PM 77.0 °F - 60.8 °F 57% 29.92 in - WSW 13.8 mph - N/A   Clear
11:00 PM 75.2 °F - 60.8 °F 61% 29.92 in - West 10.4 mph - N/A   Clear